Temperature
19 18 19 19 19 19 19 19 19 19 19 19 19 19 19 19 19 19 19 19 19 19 19 19 19 19 19 19 19 19 19 19 19 19 19 19 19 19 19 19 18 18 19
19 19 20 19 19 19 19 19 19 19 19 19 19 19 19 19 19 19 19 19 19 19 19 19 19 19 19 19 19 19 19 19 19 19 19 19 19 19 19 19 18 18 19
19 19 20 19 19 19 19 19 19 19 19 19 19 19 19 19 19 19 19 19 19 19 19 18 19 19 19 19 19 19 19 19 19 19 19 18 18 19 19 19 18 19 19
19 19 19 20 20 19 19 19 19 19 19 19 19 19 19 19 19 19 19 19 18 18 18 18 18 18 18 18 18 18 19 19 19 19 18 18 18 19 19 18 18 18 19
19 18 19 20 19 19 19 19 19 19 19 19 19 19 19 19 19 19 19 19 18 18 18 18 18 18 18 18 18 18 18 18 18 18 18 18 18 19 19 18 18 18 19
19 18 19 19 19 19 19 19 19 19 19 19 19 19 19 19 19 18 18 18 18 18 18 18 18 18 18 18 18 18 18 18 18 18 18 18 18 18 18 18 18 18 18
19 18 19 19 19 19 19 19 19 19 19 19 19 19 19 19 18 18 18 18 18 18 18 18 18 18 18 18 18 18 18 18 18 18 18 18 18 18 18 18 18 18 18
19 18 18 19 19 19 19 19 19 19 19 19 18 18 18 18 18 18 18 18 18 18 18 18 18 18 18 18 18 18 18 18 18 17 18 18 18 18 18 18 18 18 18
19 19 18 18 19 19 19 19 19 18 18 18 18 18 18 18 18 18 18 18 18 18 18 18 18 18 18 17 18 18 18 18 17 17 17 17 18 18 18 18 18 18 18
19 19 18 18 18 18 18 19 18 18 18 18 18 18 18 18 18 18 18 18 18 18 18 18 18 18 18 17 17 17 18 18 17 17 17 17 18 18 18 18 18 18 18
19 19 19 18 18 18 18 18 18 18 18 18 18 18 18 17 17 17 17 18 18 18 18 18 18 18 18 17 17 17 17 17 17 17 17 18 18 18 18 18 18 18 18
19 19 19 19 18 18 18 17 18 18 18 18 17 17 17 17 17 17 17 18 18 18 18 18 18 18 17 17 17 17 17 17 17 17 17 18 18 18 18 18 18 18 18
20 19 19 19 18 18 18 18 18 18 18 17 17 17 17 17 17 17 17 17 17 17 17 17 17 17 17 17 17 17 17 17 17 17 17 18 18 18 18 18 18 18 17
20 20 19 19 18 18 18 18 18 18 18 18 17 17 17 17 17 17 17 17 17 16 16 17 17 17 17 18 18 17 17 17 17 16 16 17 17 17 17 17 17 17 17
21 20 19 19 19 19 18 18 18 18 18 18 17 17 17 17 17 17 17 17 17 17 16 16 17 17 17 17 17 17 17 17 16 16 16 17 17 17 17 17 17 17 17
21 21 20 19 19 19 19 18 18 18 18 18 17 17 17 17 17 17 17 17 17 17 17 17 17 17 17 17 17 16 16 16 16 16 16 16 17 17 17 17 17 17 17
22 21 21 20 19 19 19 18 18 18 18 17 17 17 17 17 17 17 17 17 17 17 17 17 17 17 17 17 17 16 16 16 16 16 16 16 16 16 16 16 16 17 16
22 22 21 20 20 19 19 18 18 18 18 18 17 17 17 17 17 17 17 17 17 17 17 17 17 17 17 17 17 17 16 16 16 16 16 16 16 16 16 16 16 16 16
22 22 21 21 20 20 19 19 18 18 18 18 18 17 17 17 17 17 17 17 17 16 17 17 17 17 17 17 17 16 16 16 16 16 16 16 16 16 15 16 16 16 16
22 22 21 21 20 20 19 19 19 18 18 18 18 18 17 17 17 17 17 17 17 16 16 16 16 16 17 16 17 16 16 16 16 16 16 16 16 15 15 15 15 16 16
21 22 22 21 21 20 20 20 19 19 19 18 18 18 18 17 17 17 17 17 17 17 16 16 16 16 16 16 16 16 16 16 16 16 16 16 16 15 15 15 15 15 16
20 21 21 21 21 21 20 20 20 19 19 18 18 18 18 18 17 17 17 17 17 17 16 16 16 16 16 16 16 16 16 16 16 16 16 16 16 16 15 15 15 15 15
19 20 21 21 21 21 20 20 20 19 19 19 18 18 18 18 18 17 17 17 17 17 16 16 16 16 16 16 16 16 16 17 17 16 16 16 16 16 15 15 15 15 15
18 19 20 21 21 20 20 19 20 19 18 18 17 17 18 18 18 17 17 17 17 17 17 16 16 16 16 16 16 16 16 16 16 17 16 16 16 16 16 15 15 15 15
17 18 19 20 20 19 19 19 19 18 17 17 17 17 17 17 17 17 17 17 17 17 17 16 16 16 16 16 16 16 15 15 16 16 16 16 16 16 16 15 15 15 15
16 17 17 18 18 18 18 18 17 17 16 16 16 16 16 17 17 17 17 17 17 16 16 16 16 16 16 16 15 15 15 15 15 15 15 16 16 16 16 15 15 15 15
Wind_Speed
12 15 17 16 16 15 14 14 13 13 13 13 13 12 12 11 11 10 9 9 8 7 7 7 8 8 7 7 7 8 8 7 7 7 6 5 5 4 4 4 3 5 6
16 17 18 16 16 15 15 14 13 13 13 13 12 12 11 11 10 10 10 9 9 8 8 7 8 8 7 7 7 8 8 7 7 7 6 6 6 5 5 3 1 5 5
17 17 18 16 16 15 15 14 13 13 13 12 12 12 11 10 10 10 10 10 9 9 9 8 8 8 7 7 7 7 7 7 7 7 4 4 6 6 5 4 4 5 4
16 16 17 17 16 15 14 14 13 13 13 12 12 11 10 10 10 9 10 10 10 10 9 9 8 8 7 6 6 6 5 6 6 5 4 4 4 7 5 5 6 6 6
15 15 16 17 15 14 14 14 13 13 12 12 12 11 10 10 9 9 9 10 10 10 10 9 9 8 7 6 5 5 5 5 5 4 3 3 4 6 5 5 6 7 7
14 14 17 16 15 14 13 13 13 12 12 11 11 11 10 9 9 9 9 9 10 10 10 10 9 9 8 6 5 5 5 4 5 3 3 2 4 5 5 6 6 7 8
14 14 16 16 15 14 13 13 12 12 12 12 11 11 10 9 9 8 8 8 9 9 9 9 9 8 8 7 7 7 6 3 2 2 2 2 4 5 5 5 6 7 8
14 14 15 16 14 14 13 13 12 12 12 12 12 11 10 9 8 8 7 7 8 8 8 8 8 8 7 7 8 8 6 1 4 3 2 3 5 3 4 5 6 6 7
13 13 13 16 15 14 13 13 13 12 12 12 12 11 10 9 8 7 7 7 7 7 7 7 7 7 7 7 8 8 7 3 2 3 3 4 4 2 3 4 5 6 6
13 12 12 13 14 14 14 14 13 12 12 12 12 11 10 9 8 7 8 7 6 7 6 6 6 6 7 8 8 8 4 3 4 3 4 6 5 3 3 4 5 5 5
12 12 11 11 11 11 12 13 13 12 12 12 12 12 11 10 10 9 7 7 6 6 6 6 5 5 5 8 7 4 2 3 3 3 5 7 4 4 3 4 4 4 4
13 13 11 11 11 11 9 11 11 12 12 13 12 13 11 8 6 5 11 6 6 6 6 5 4 5 6 6 7 6 2 2 1 3 6 6 4 4 4 4 4 4 4
13 12 12 11 11 10 8 8 8 9 10 11 11 11 9 7 7 7 8 9 8 8 7 7 7 4 3 3 2 2 2 2 2 2 6 6 4 3 4 4 3 3 4
12 12 12 12 11 11 10 8 8 7 8 8 10 11 9 6 6 7 6 7 7 6 4 4 3 4 3 3 3 2 2 1 2 2 6 6 4 3 3 3 3 3 3
12 12 12 12 12 12 10 7 8 8 8 9 8 9 9 7 7 6 6 6 7 6 6 4 4 4 3 2 1 1 2 2 2 1 4 7 5 4 2 2 3 3 3
12 12 12 12 13 12 11 10 8 8 8 8 9 10 11 8 7 6 7 6 7 7 5 5 4 3 3 2 2 2 2 2 2 1 2 5 6 5 3 2 2 2 2
12 12 12 12 13 13 12 11 8 8 9 8 9 11 11 10 9 8 7 7 7 8 7 5 4 3 3 3 3 2 2 2 2 2 2 2 4 6 6 4 3 3 2
12 13 13 11 13 13 12 11 9 9 9 8 9 10 12 12 11 8 7 7 8 7 6 5 4 4 4 4 4 3 2 2 1 2 2 2 2 3 6 7 5 4 3
13 14 14 14 14 14 13 11 10 9 9 9 9 9 11 12 12 9 7 6 8 7 7 6 6 5 5 4 4 3 2 2 2 2 2 2 2 1 3 7 6 6 5
13 15 16 15 15 14 12 11 9 9 9 8 9 9 11 11 12 10 7 8 8 6 7 7 7 6 5 5 5 5 4 3 3 3 2 1 2 2 1 2 3 6 6
12 15 16 16 16 13 11 11 10 9 8 8 8 10 11 12 12 11 8 9 8 8 9 10 8 8 6 6 5 5 5 6 5 5 5 4 4 3 3 3 2 2 4
10 13 16 16 16 15 12 10 8 7 6 6 6 7 10 11 12 10 11 9 9 9 10 10 9 7 7 7 6 5 5 7 7 8 7 6 6 5 5 4 4 3 2
10 11 12 14 14 13 13 9 7 6 4 4 5 5 7 10 11 11 10 9 9 9 9 10 11 11 9 9 8 6 5 5 4 6 9 8 7 6 6 6 6 5 4
12 10 9 10 11 11 13 11 10 6 4 2 1 2 5 7 9 10 10 9 9 8 9 10 10 10 10 9 8 7 6 3 4 4 5 7 9 9 8 6 7 6 5
12 9 4 4 6 8 11 12 10 6 4 3 1 3 4 5 7 8 8 8 9 8 9 9 9 10 9 10 9 7 7 6 8 5 4 4 6 8 9 9 7 7 7
11 8 5 4 7 9 10 11 11 10 7 5 1 3 4 3 5 7 7 7 8 7 8 8 9 11 10 11 10 10 8 7 8 8 8 6 5 6 8 8 8 8 8
Wind_Direction
155 150 145 147 145 142 139 137 134 132 130 127 124 121 118 115 111 107 103 102 99 100 104 108 109 110 114 118 123 129 132 130 130 129 128 125 123 129 128 131 179 139 105
151 149 146 149 147 146 143 141 139 137 134 131 128 124 120 116 111 107 101 97 95 95 98 103 105 105 108 113 119 123 127 128 126 124 125 129 122 120 123 126 357 81 108
150 147 150 150 149 148 147 145 143 140 137 135 132 128 124 119 113 108 102 97 94 92 94 98 100 101 104 111 119 125 128 130 127 126 154 129 119 113 116 118 106 99 107
151 151 152 150 151 151 150 149 146 144 142 141 138 133 128 123 117 110 103 98 93 90 88 89 92 94 93 100 116 128 134 138 136 160 160 112 113 105 109 107 108 104 105
153 153 146 153 153 153 153 152 151 149 149 148 144 139 133 128 122 114 108 101 94 89 85 83 84 85 85 88 102 122 130 136 147 203 106 100 91 101 106 105 103 105 105
157 157 151 158 156 156 156 156 154 154 154 154 151 145 140 134 127 119 112 105 98 91 84 81 80 78 75 76 89 107 117 136 188 154 126 122 104 101 101 107 109 110 104
162 162 157 162 161 162 161 161 160 160 160 159 157 152 147 142 134 126 119 111 103 95 87 82 79 77 72 72 82 93 101 130 167 132 140 113 92 105 105 111 119 116 109
165 166 162 164 167 168 168 168 167 168 167 165 163 159 154 148 140 133 125 117 108 100 93 86 81 78 75 77 84 89 86 328 124 118 112 100 84 112 114 118 126 126 121
169 172 171 171 175 176 176 176 175 175 174 171 167 163 159 153 147 141 134 126 116 107 99 93 86 80 76 83 91 93 87 41 74 86 91 77 79 102 119 129 137 136 130
175 178 179 177 180 181 181 183 183 181 179 176 172 167 161 157 155 152 156 135 128 117 107 100 94 87 86 92 94 96 108 217 65 84 72 75 67 83 110 127 139 141 135
182 185 186 183 187 187 184 176 185 185 184 181 178 171 175 178 168 171 135 133 139 128 117 108 103 105 119 116 104 115 213 62 67 56 66 60 61 79 100 119 130 139 141
188 191 191 194 188 191 188 182 191 188 185 192 185 179 189 180 169 156 125 151 146 138 135 121 134 174 208 146 141 193 130 95 94 75 74 55 62 78 94 111 123 135 142
190 191 197 197 195 195 191 194 191 190 187 197 191 182 188 179 170 173 166 167 167 174 165 151 189 169 164 120 143 138 59 30 52 73 80 52 48 79 100 110 123 133 142
194 195 199 200 197 201 199 196 200 194 190 191 195 191 185 190 191 177 186 175 176 174 165 178 170 155 168 163 159 129 102 11 41 53 79 57 40 61 105 120 127 131 143
199 199 204 202 205 202 202 201 205 203 199 194 193 199 193 193 196 185 187 182 190 176 178 183 198 166 180 165 120 89 82 68 57 65 96 81 54 47 69 118 126 135 136
208 206 204 206 208 208 202 202 206 203 202 204 194 204 200 198 201 191 196 187 192 191 188 194 191 190 191 171 145 90 53 67 75 70 78 109 91 65 61 88 113 133 143
218 216 210 210 210 211 210 207 207 206 201 204 200 207 205 202 203 200 203 194 195 196 196 204 187 207 187 176 172 162 107 66 84 110 92 79 117 101 75 70 81 89 110
233 227 217 209 213 212 210 206 208 209 207 205 204 208 210 207 209 205 208 206 201 199 206 199 211 208 192 196 184 171 154 131 129 68 110 121 102 113 105 78 69 72 80
245 237 229 215 215 212 209 205 210 209 208 210 208 208 214 213 213 209 214 215 204 204 213 214 213 218 207 201 196 193 193 178 163 190 154 129 117 123 115 106 95 74 69
257 243 236 225 216 211 205 207 205 212 209 212 213 212 216 219 219 219 215 218 214 212 219 221 218 221 225 211 215 205 209 210 213 215 220 198 189 137 128 140 154 111 85
264 248 237 230 218 208 200 200 199 204 207 211 217 220 220 224 225 222 225 223 216 218 222 225 219 217 218 213 212 218 221 230 231 215 224 226 205 191 212 198 202 190 137
286 258 243 230 219 208 199 195 196 195 202 207 211 222 227 229 229 228 227 228 225 226 226 224 220 219 218 211 215 219 227 217 222 227 221 228 230 204 221 212 204 207 209
311 279 251 235 220 203 189 180 163 161 163 182 206 220 231 234 234 230 235 235 234 231 228 224 220 218 217 219 222 216 228 231 210 209 221 222 229 227 224 222 219 208 202
326 308 264 236 216 192 176 171 166 166 163 152 232 240 245 242 238 233 233 234 234 231 231 228 224 223 219 217 219 229 237 248 232 218 211 224 225 228 230 220 227 224 212
341 336 307 217 187 164 162 160 151 133 118 96 33 292 259 244 237 232 231 232 232 231 231 228 224 222 221 219 213 208 218 228 240 242 236 223 223 230 232 227 222 223 215
2 9 23 96 122 132 136 138 133 124 115 111 140 254 253 241 235 227 225 229 232 231 230 227 225 223 227 226 222 217 213 216 222 225 233 235 234 237 231 227 227 222 219
Height
1527 1529 1530 1532 1534 1536 1537 1538 1540 1541 1541 1542 1543 1543 1544 1544 1545 1546 1546 1546 1547 1547 1548 1548 1548 1549 1549 1549 1550 1550 1550 1551 1551 1551 1551 1552 1552 1551 1551 1551 1551 1551 1550
1527 1529 1530 1533 1535 1536 1538 1539 1540 1541 1542 1543 1544 1544 1545 1546 1546 1547 1547 1547 1548 1548 1548 1549 1549 1549 1550 1550 1551 1551 1551 1552 1552 1552 1552 1553 1553 1552 1552 1552 1552 1552 1551
1527 1529 1531 1533 1535 1537 1539 1540 1541 1542 1543 1544 1545 1545 1546 1547 1547 1548 1548 1548 1548 1549 1549 1549 1550 1550 1551 1551 1552 1552 1553 1553 1553 1553 1554 1554 1554 1553 1553 1553 1553 1552 1552
1528 1530 1532 1534 1536 1538 1540 1541 1542 1543 1544 1545 1546 1546 1547 1548 1548 1548 1549 1549 1549 1549 1550 1550 1550 1551 1551 1552 1552 1553 1554 1554 1554 1555 1556 1555 1555 1554 1554 1554 1553 1553 1553
1529 1532 1533 1535 1537 1539 1540 1542 1543 1544 1545 1546 1547 1547 1548 1549 1549 1549 1549 1549 1550 1550 1550 1551 1551 1551 1552 1552 1553 1554 1554 1555 1555 1556 1556 1556 1555 1555 1555 1555 1554 1554 1554
1530 1532 1533 1535 1537 1539 1541 1542 1543 1544 1545 1546 1547 1548 1549 1549 1550 1550 1550 1550 1550 1550 1551 1551 1552 1552 1552 1553 1554 1554 1555 1555 1556 1556 1556 1556 1556 1555 1556 1556 1555 1555 1555
1531 1533 1534 1536 1538 1540 1541 1542 1543 1545 1546 1547 1548 1548 1549 1550 1550 1550 1550 1551 1551 1551 1551 1552 1552 1553 1553 1554 1554 1555 1555 1556 1557 1556 1556 1556 1556 1556 1556 1556 1556 1556 1556
1532 1533 1535 1535 1538 1539 1541 1542 1543 1545 1546 1547 1548 1549 1549 1550 1550 1551 1551 1551 1551 1551 1552 1553 1553 1554 1554 1555 1555 1555 1556 1556 1557 1557 1557 1557 1556 1557 1557 1557 1557 1557 1557
1532 1534 1535 1536 1537 1539 1540 1542 1543 1544 1545 1547 1548 1549 1549 1550 1551 1551 1551 1551 1551 1552 1552 1553 1554 1554 1555 1555 1556 1556 1556 1557 1558 1558 1558 1557 1556 1557 1557 1557 1558 1558 1558
1532 1534 1536 1537 1538 1539 1540 1541 1542 1544 1545 1546 1547 1548 1549 1550 1550 1551 1552 1551 1552 1552 1553 1553 1554 1555 1556 1556 1556 1557 1557 1558 1559 1558 1558 1557 1556 1557 1557 1558 1558 1558 1559
1532 1534 1535 1537 1538 1540 1541 1541 1542 1543 1544 1545 1547 1548 1549 1551 1552 1552 1552 1551 1552 1552 1553 1554 1555 1555 1556 1557 1557 1557 1558 1559 1558 1559 1558 1556 1557 1557 1557 1558 1558 1559 1559
1530 1533 1534 1536 1537 1539 1540 1541 1541 1542 1543 1545 1547 1547 1549 1551 1552 1553 1551 1552 1552 1553 1553 1554 1555 1556 1557 1559 1558 1558 1559 1559 1559 1559 1557 1556 1556 1557 1557 1558 1558 1559 1559
1530 1531 1533 1535 1536 1538 1539 1540 1541 1542 1543 1545 1547 1547 1549 1550 1551 1552 1552 1552 1553 1554 1556 1555 1556 1558 1559 1559 1559 1560 1559 1559 1559 1559 1557 1556 1556 1556 1557 1557 1558 1559 1559
1529 1530 1532 1533 1535 1536 1538 1539 1540 1541 1542 1544 1545 1547 1548 1549 1551 1552 1552 1554 1554 1555 1556 1557 1558 1558 1559 1559 1560 1560 1559 1559 1558 1558 1556 1556 1556 1556 1556 1557 1558 1558 1559
1528 1529 1531 1532 1534 1535 1537 1538 1539 1540 1542 1543 1544 1546 1547 1548 1550 1551 1552 1552 1554 1555 1556 1556 1558 1558 1559 1559 1559 1559 1559 1558 1558 1557 1557 1555 1556 1556 1556 1557 1557 1558 1558
1528 1529 1530 1531 1532 1534 1535 1536 1538 1539 1540 1542 1542 1544 1546 1547 1548 1549 1551 1551 1553 1554 1556 1557 1558 1558 1558 1559 1559 1558 1558 1558 1557 1557 1557 1556 1556 1556 1556 1556 1557 1557 1557
1527 1528 1529 1530 1531 1532 1534 1535 1536 1537 1539 1540 1541 1542 1544 1546 1547 1548 1549 1550 1552 1553 1555 1556 1557 1557 1558 1558 1558 1558 1558 1557 1557 1557 1556 1556 1556 1556 1556 1556 1556 1556 1557
1524 1526 1527 1527 1528 1530 1532 1533 1534 1535 1537 1537 1539 1540 1542 1544 1545 1546 1547 1549 1550 1552 1553 1554 1556 1557 1557 1558 1558 1558 1558 1557 1557 1557 1557 1556 1556 1556 1556 1555 1555 1556 1556
1521 1522 1524 1525 1526 1528 1529 1530 1532 1533 1534 1535 1536 1538 1539 1542 1543 1544 1545 1547 1548 1549 1551 1553 1554 1555 1556 1556 1557 1557 1557 1557 1557 1557 1557 1557 1556 1556 1556 1555 1555 1555 1555
1516 1517 1519 1521 1522 1524 1525 1527 1528 1530 1531 1532 1534 1535 1536 1538 1540 1541 1542 1544 1545 1546 1548 1550 1551 1552 1554 1554 1556 1556 1556 1556 1556 1556 1556 1556 1556 1555 1555 1555 1555 1554 1554
1509 1511 1513 1515 1517 1519 1520 1522 1524 1526 1528 1529 1531 1532 1533 1535 1536 1538 1539 1541 1542 1543 1544 1546 1548 1549 1551 1552 1553 1554 1554 1554 1555 1554 1555 1555 1555 1554 1554 1554 1555 1554 1554
1504 1504 1506 1508 1511 1513 1514 1517 1520 1523 1525 1526 1527 1528 1530 1531 1533 1534 1536 1537 1539 1540 1541 1543 1544 1545 1547 1548 1550 1551 1552 1553 1551 1552 1552 1553 1554 1553 1553 1553 1553 1553 1553
1499 1498 1499 1501 1503 1506 1508 1511 1514 1517 1520 1522 1523 1525 1527 1528 1530 1531 1533 1534 1535 1536 1537 1539 1540 1541 1543 1544 1546 1547 1548 1548 1549 1549 1549 1550 1551 1552 1552 1552 1552 1552 1552
1495 1493 1493 1494 1497 1499 1502 1504 1507 1510 1514 1517 1520 1522 1524 1525 1526 1528 1529 1530 1531 1532 1533 1534 1535 1537 1538 1539 1541 1542 1544 1545 1546 1546 1547 1547 1548 1549 1550 1550 1550 1551 1551
1492 1490 1488 1489 1491 1493 1496 1499 1501 1505 1508 1512 1515 1519 1521 1522 1523 1524 1525 1526 1527 1528 1529 1530 1531 1532 1533 1535 1536 1537 1539 1540 1542 1543 1544 1544 1545 1546 1547 1548 1548 1549 1549
1492 1488 1486 1486 1487 1489 1492 1495 1497 1500 1504 1507 1512 1517 1520 1520 1520 1521 1522 1523 1524 1525 1526 1527 1528 1528 1529 1531 1532 1533 1534 1535 1537 1539 1539 1540 1541 1543 1543 1544 1545 1546 1546